Location: Orinda
(37.8771°N, 122.1797°W)
Time: 21:14:33
(UTC+00:00)

CZ-4B R/B - Pass Details

Date: 21 October 2019
Orbit: 808 x 882 km, 99.1° (Epoch: 14 November)

Event Time Altitude Azimuth Distance (km) Brightness Sun altitude
Rises 13:21:31 0° 18° (NNE) 3,337 6.5 -12.8°
Reaches altitude 10° 13:23:55 10° 22° (NNE) 2,399 5.8 -12.3°
Maximum altitude 13:29:07 58° 102° (ESE) 940 3.8 -11.3°
Drops below altitude 10° 13:34:19 10° 181° (S) 2,391 5.6 -10.3°
Sets 13:36:41 0° 185° (S) 3,324 6.3 -9.8°
